星链-31774 (STARLINK-31774 )

导读 | 豆包AI

STARLINK-31774是美国SpaceX公司星链星座的一员,于2024年4月28日发射升空,属于低轨通信卫星。作为星链全球卫星互联网项目的组成部分,它运行于约550公里高度轨道,为全球偏远地区提供高速低延迟宽带服务。卫星采用平板设计与霍尔推进技术,具备自主避撞能力,寿命末期会主动离轨再入大气层焚毁,减少太空垃圾。星链计划最终将部署数万颗卫星,推动全球互联覆盖。

基本信息
目录编号:
59622
目录名称:
STARLINK-31774
国际标识:
2024-080X
轨道中心:
EARTH
卫星名称:
星链-31774
卫星全名:
星链-31774 (STARLINK-31774 )
卫星状态:
在轨 (已飞行733 天)
发射日期:
2024-04-28 UTC
国别 :
美国 (US)
星等 :
--
轨道信息
数据来源 国际轨道数据
星历时间: 2026-04-30T08:48:33+0800
1天前
查看轨道信息
半长轴: 6861.201km
偏心率: 0.0001425
轨道倾角: 43.002°
近地点辐角 267.889°
升交点赤经 104.603°
平近点角 92.180°
近地点: 482.086km
远地点: 484.042km
周期: 94.267分钟
每日圈数: 15.275753
详细信息
固有亮度:
5
最大亮度:
1.5
卫星平台:
Starlink v2.0 mini
覆盖范围:
全球
运营商:
太空探索技术公司
运营商所在国:
美国
制造商(研发单位):
太空探索技术公司
制造商所在国:
美国
使用方式:
暂无
卫星简介
星链(Starlink)计划是由太空探索技术公司(SpaceX)提出的一个巨型低轨卫星互联网星座项目,计划在2019年至2024年间在太空搭建由约1.2万颗卫星组成的“星链”网络,其中1584颗将部署在地球上空550千米处的近地轨道,并从2020年开始工作。该卫星仍在工作。
2D轨道图
3D轨道图
轨道高度分析图
轨道倾角分析图
轨道综合分析图
查看轨道综合分析图